Powrót do katalogu

SL-8 R/B

AktywnyLEO
NORAD 10938·ROCKET BODY·🇷🇺 Russia

Wystrzelony Jun 7, 1978 z Plesetsk Cosmodrome

Loading…

Następne Przeloty (najbliższe 24 godziny)

TLE

ŚwieżeSource: Space-Track

Epoka: Sep 14, 2026, 11:24 UTC

1 10938U 78056J   26257.47522619  .00000009  00000-0  21701-3 0  9998
2 10938  74.0245 338.2389 0133169 358.3872  13.1165 12.21540953152546

Śledź SL-8 R/B w czasie rzeczywistym z AllMySat

Download on the App Store